CAPE
1 1 0 0 0 0 0 0 0 0 0 0 2 0 0 0 0 0 0 0 0 1 6 7 4 13 31
1 0 0 0 0 0 0 0 0 0 0 0 0 0 0 0 0 0 0 0 0 1 7 5 0 11 29
0 0 0 0 0 0 0 0 0 0 0 0 0 0 0 0 0 0 0 0 0 1 5 0 0 0 0
0 0 0 0 0 0 0 0 0 0 0 0 0 0 0 0 0 0 0 0 0 1 4 0 0 0 0
0 0 0 0 0 0 0 0 0 0 0 0 0 0 0 0 0 0 0 0 0 0 5 0 0 0 0
0 0 0 0 0 0 0 0 0 0 0 0 0 0 0 0 0 0 0 0 0 1 3 1 0 1 0
0 0 0 0 0 0 0 0 0 0 0 0 0 0 0 0 0 0 0 0 0 0 2 3 0 0 0
0 0 0 0 0 0 0 0 0 0 0 0 0 0 0 0 0 0 0 0 0 0 0 1 1 0 0
0 0 0 0 0 0 0 1 1 0 0 0 0 0 0 0 0 0 0 0 0 0 0 0 1 1 2
0 0 0 0 0 0 0 1 0 0 0 0 0 0 0 0 0 0 0 0 0 1 0 0 0 0 0
0 0 0 0 0 0 0 0 0 0 0 0 0 0 0 0 0 0 0 0 0 0 0 0 0 0 0
0 0 0 0 0 0 0 0 0 0 0 0 0 0 0 0 0 0 0 0 0 0 0 0 0 0 0
0 0 0 0 0 0 1 2 1 0 1 0 0 0 0 0 0 0 0 0 0 0 0 0 0 0 0
0 0 0 0 0 0 0 0 0 0 0 1 1 0 0 0 0 0 0 0 0 0 0 0 0 0 0
0 0 0 0 0 0 0 0 0 0 0 0 1 1 0 0 0 0 0 0 0 0 0 0 0 0 0
0 0 0 0 0 0 0 0 0 0 0 0 0 0 0 0 0 0 0 0 0 0 0 0 0 0 0
0 0 0 0 0 0 0 0 0 0 0 0 0 0 0 0 0 0 0 0 0 0 0 0 0 0 0
CIN
0 0 0 0 0 0 0 0 0 0 0 -1 -1 0 -1 0 0 0 0 0 0 0 0 0 0 -1 -214
0 0 0 0 0 0 0 0 0 0 0 -2 -3 0 0 0 0 0 0 0 0 0 0 0 0 -154 -145
0 0 0 0 0 0 0 0 0 0 0 0 0 0 0 0 0 0 0 0 0 0 0 0 0 0 -185
0 0 0 0 0 0 0 0 0 0 0 0 0 0 0 0 0 0 0 0 0 0 0 0 0 0 0
0 0 0 0 0 0 0 0 0 0 0 0 0 0 0 0 0 0 0 0 0 0 0 0 0 0 0
0 0 0 0 0 0 0 0 0 0 0 0 0 0 0 0 0 0 0 0 0 0 0 0 0 -91 0
0 0 0 0 0 0 0 0 0 0 0 0 0 0 0 0 0 0 0 0 0 0 0 0 0 0 0
0 0 0 0 0 0 0 0 0 0 0 0 0 0 0 0 0 0 0 0 0 0 0 0 0 0 -3
0 0 0 0 0 0 0 0 0 0 0 0 0 0 0 0 0 0 0 0 0 0 0 0 0 0 0
0 0 0 0 0 0 0 0 0 0 0 0 0 0 0 0 0 0 0 0 0 0 0 0 0 0 0
0 0 0 0 0 0 0 0 0 0 0 0 0 0 0 0 0 0 0 0 0 0 0 0 0 0 0
0 0 0 0 0 0 0 0 0 0 0 0 0 0 0 0 0 0 0 0 0 0 0 0 0 0 0
0 0 0 0 0 0 0 0 0 0 0 0 0 0 0 0 0 0 0 0 0 0 0 0 0 0 0
0 0 0 0 0 0 0 0 0 0 0 0 0 0 0 0 0 0 0 0 0 0 0 0 0 0 0
0 0 0 0 0 0 0 0 0 0 0 0 0 0 0 0 0 0 0 0 0 0 0 0 0 0 0
0 0 0 0 0 0 0 0 0 0 0 0 0 0 0 0 0 0 0 0 0 0 0 0 0 0 0
0 0 0 0 0 0 0 0 0 0 0 0 0 0 0 0 0 0 0 0 0 0 0 0 0 0 0
Wind_Speed
23 16 16 16 17 22 23 25 25 24 24 25 22 23 24 26 27 29 30 31 33 38 39 39 34 27 16
22 15 16 18 20 23 26 25 25 24 24 24 20 21 23 25 25 27 29 31 33 37 38 37 31 24 19
17 15 18 18 21 23 24 26 26 23 21 21 20 22 23 23 24 26 28 28 31 34 35 35 24 22 18
16 16 19 19 18 21 25 24 25 23 23 22 23 22 21 22 23 24 25 26 28 30 31 29 25 23 21
16 17 16 18 19 18 21 22 24 23 24 23 22 21 20 20 21 24 25 24 25 28 27 24 21 21 20
18 20 19 19 18 20 21 22 24 22 22 22 21 20 19 19 21 23 23 22 22 24 26 21 18 17 16
20 21 20 17 17 19 20 21 22 21 22 22 20 20 18 18 20 22 21 20 19 20 23 20 16 15 14
19 20 19 16 15 18 18 18 19 19 18 22 19 19 19 18 19 19 19 18 17 18 19 18 15 13 13
15 16 16 15 16 16 17 19 22 19 16 17 18 18 19 18 18 17 17 17 15 15 15 15 13 11 11
16 17 17 17 16 16 16 19 19 20 15 15 17 18 17 16 17 16 15 16 15 15 13 13 12 9 9
18 19 19 18 15 15 15 16 16 17 15 13 14 15 17 17 17 17 16 15 14 14 14 12 12 11 10
19 19 18 16 15 14 14 14 15 15 13 13 14 15 15 16 15 16 14 14 13 12 12 12 12 12 12
17 16 15 13 11 12 13 14 15 15 16 15 13 13 13 14 15 15 14 13 12 11 11 11 11 12 11
15 13 13 12 12 12 13 14 15 15 15 15 13 12 12 12 13 13 13 12 13 10 11 11 11 12 12
14 14 13 12 13 13 14 14 14 14 13 13 12 12 12 12 13 13 13 12 11 11 11 12 13 12 13
16 14 13 12 12 13 14 14 13 12 12 11 10 12 14 14 11 12 13 12 12 10 13 15 16 14 13
18 14 13 14 12 12 12 13 13 12 11 9 10 11 12 12 14 7 9 11 11 11 13 14 16 16 15
Wind_Direction
299 298 297 297 305 305 311 318 324 329 329 329 334 338 342 345 347 347 350 349 344 337 330 323 328 337 346
294 295 297 296 302 305 308 316 322 327 328 330 338 341 342 345 348 349 349 347 344 338 333 332 334 343 348
289 298 301 301 304 308 313 315 319 327 330 332 336 336 340 344 348 349 349 349 347 342 338 335 357 354 357
293 298 301 307 312 311 310 318 319 326 329 331 332 334 341 345 348 349 349 348 348 347 346 353 0 11 5
292 300 306 308 308 316 316 320 319 322 325 329 332 335 340 346 348 348 347 349 352 350 346 354 8 13 24
293 295 303 308 312 313 316 317 319 329 330 332 337 338 343 346 346 347 349 351 351 352 346 349 13 20 30
292 297 302 306 312 313 315 317 322 329 332 332 339 339 344 346 347 346 349 350 350 350 344 347 18 26 27
299 302 308 311 312 313 316 321 328 331 334 329 339 340 343 344 345 347 349 350 344 343 348 354 12 25 33
309 309 310 311 312 316 318 322 322 330 337 337 341 342 342 344 346 348 349 347 345 342 346 355 4 17 19
304 306 308 308 310 315 318 317 322 325 337 337 341 344 344 352 355 350 346 343 345 341 334 338 346 352 352
297 299 301 309 317 317 320 321 323 325 338 340 343 345 341 343 347 346 345 344 344 343 337 336 333 331 325
296 297 302 306 313 319 324 327 329 328 332 331 333 337 337 338 342 345 347 342 343 345 340 339 335 324 317
294 298 302 308 316 320 323 326 325 323 322 325 328 334 333 336 338 341 343 337 338 344 343 344 338 330 323
291 297 304 305 307 313 315 316 315 316 322 323 327 331 332 332 334 334 333 339 337 340 341 342 338 332 327
282 289 294 297 302 305 307 309 311 313 316 323 329 330 330 333 328 326 324 327 333 343 341 332 330 330 324
279 280 284 290 293 298 303 305 304 310 316 323 328 328 328 325 326 321 321 322 325 333 330 323 322 330 327
274 274 281 285 286 290 295 298 301 306 312 322 324 325 323 322 325 335 330 325 329 329 324 326 323 320 323